Weather in Elban

Russia / Khabarovsk Krai     50°05′32″N   136°30′15″E
temp.,
°C
wind,
m/s
gust,
m/s
humid.,
%
clouds,
%
prec.,
mm/h
press.,
hPa
HPBL,
m
2 march, tue
tue201:00−23ese119333 0.0 102621
04:00−25ese129532 0.0 102720
07:00−27ese119731 0.0 102819
10:00−23se129253 0.0 1027229
13:00−19s228497 0.0 1026430
16:00−18ssw238787 0.0 1025387
19:00−23s129621 0.0 102720
22:00−24nne119322 0.0 102920
3 march, wed
wed301:00−25ssw11945 0.0 102820
04:00−26ssw22972 0.0 102919
07:00−27ssw23973 0.0 102832
10:00−22sw369151 0.0 1028277
13:00−16sw488798 0.0 1024460
16:00−14sw598264 0.0 1021503
19:00−16wsw369381 0.0 1019159
22:00−15sw279785 0.3 1019211
4 march, thu
thu401:00−16sw249889 0.1 101784
04:00−17wsw229893 0.1 101542
07:00−18wsw229598 0.0 101427
10:00−13sw258793 0.0 1013242
13:00−9sw368844 0.0 1011349
16:00−6sw489061 0.0 1009486
19:00−7wsw2597100 0.2 1008168
22:00−6wsw3997100 0.6 1007304
5 march, fri
fri501:00−9nne2396100 0.0 100788
04:00−14ene4893100 0.1 1009317
07:00−16ene3796100 0.6 1013326
10:00−15ne3582100 1.0 1016448
13:00−14se3386100 0.2 1017589
16:00−13sse2386100 0.5 1018668
19:00−18ese129075 0.1 102024
22:00−22se129255 0.1 102321
6 march, sat
sat601:00−24sse139341 0.0 102470
04:00−26se129349 0.0 102619
07:00−27ese119996 0.0 102819
10:00−23s259083 0.0 1028396
13:00−21ssw469099 0.0 1027511
16:00−19sw588385 0.0 1026568
19:00−22sw238920 0.0 102624
22:00−24ene019510 0.0 102820